Theta_e
305 305 305 305 305 305 306 306 307 307 307 307 308 308 309 309 309 309 309 309 310 313 314 314 315 316 317 317 317 316 315 315 315 315 315 314 312 307 307 307 311 318 318 318 321 320 324 330 331 330 330 329 331 332 332 328 324 326 330 332 331 331 331 329 330 329 328 330 327 325 321 322 324 319 319 319 320 322 322 322 323 326 328 330 332 330 331 333
304 304 304 304 304 304 305 305 306 306 307 307 308 308 308 309 309 309 309 309 309 311 313 313 314 315 316 318 317 316 315 316 316 315 315 313 311 310 309 304 306 318 320 318 321 322 323 329 331 331 329 328 330 331 332 330 325 327 332 332 331 333 332 329 329 328 328 329 327 326 322 322 324 321 320 321 323 322 323 323 323 325 327 331 332 331 332 334
304 304 304 305 304 304 304 305 306 306 307 307 307 307 308 308 309 309 309 309 309 309 311 313 314 314 316 318 317 316 316 316 315 315 314 313 312 310 308 306 304 311 316 316 318 324 327 330 332 331 328 329 330 329 331 330 326 327 330 332 333 332 330 327 328 328 327 327 328 327 321 321 323 320 320 322 324 323 323 324 323 324 325 331 332 332 333 334
304 304 304 304 304 304 304 304 305 305 306 307 307 307 307 307 308 309 310 309 309 309 310 312 313 313 315 317 317 317 315 315 315 314 313 314 314 312 309 307 305 306 310 311 314 324 329 330 332 331 329 330 330 329 331 330 328 327 328 331 332 330 330 328 327 327 326 326 328 326 322 323 321 318 321 323 325 324 324 324 323 324 323 330 332 332 334 334
304 304 303 304 304 304 304 304 304 304 305 306 307 307 307 306 306 308 309 310 309 309 310 311 312 313 314 316 317 316 314 315 315 311 313 315 315 315 312 308 307 309 309 309 311 317 325 329 331 331 329 330 331 331 330 330 328 327 328 330 329 328 330 329 326 326 324 323 325 325 325 325 320 319 321 323 327 327 325 323 323 323 322 329 332 333 333 334
304 304 304 304 304 304 304 304 303 303 305 305 306 306 307 307 306 306 307 309 309 309 310 311 312 313 313 315 317 316 315 317 314 311 314 315 314 315 314 311 312 314 312 312 311 312 321 328 330 331 330 330 332 330 331 329 326 328 329 328 328 326 329 328 326 325 323 323 325 325 326 323 321 323 321 321 327 325 321 320 321 320 320 329 333 333 332 333
304 304 304 304 304 304 304 304 304 303 304 305 305 306 306 307 307 307 307 308 309 309 310 310 311 312 313 314 316 315 315 317 313 313 315 314 313 313 314 315 316 316 314 314 313 311 319 327 329 331 330 330 331 330 331 330 325 328 329 328 328 325 327 326 324 323 322 325 325 324 325 323 325 326 320 319 325 324 320 317 317 318 321 329 333 331 332 334
304 304 303 304 304 304 304 304 303 303 303 304 305 306 306 306 307 308 307 307 308 309 309 310 311 312 312 313 315 316 315 316 313 314 316 314 312 312 314 317 317 317 315 315 314 313 320 327 329 329 330 330 331 331 331 331 329 329 329 329 327 324 326 325 323 322 322 323 322 322 325 325 326 324 321 323 325 325 320 315 317 321 323 328 330 331 333 334
303 303 303 304 304 304 304 304 304 304 304 304 305 305 306 305 306 307 307 307 308 308 309 310 311 311 312 313 314 317 317 316 314 313 314 315 313 312 314 317 317 316 316 316 315 317 322 326 327 328 330 330 329 331 331 331 331 330 330 329 327 325 325 324 323 323 322 322 321 323 326 326 323 321 325 326 326 325 320 317 322 324 325 327 328 330 332 332
303 302 302 303 304 304 304 305 305 305 305 305 305 305 305 305 305 306 307 307 307 308 309 309 310 311 312 313 314 317 316 314 316 314 312 313 313 312 312 314 317 316 315 316 316 320 323 324 326 328 330 330 329 329 332 332 330 330 330 329 328 327 325 324 325 324 322 322 322 324 327 326 321 322 328 328 326 325 320 321 325 325 325 327 328 330 332 333
303 303 302 302 303 304 304 304 305 305 305 305 305 305 305 305 306 306 307 307 307 307 308 309 310 311 312 312 313 316 314 313 315 314 314 313 311 311 310 311 316 317 315 315 315 318 323 326 328 329 329 330 329 329 331 330 328 329 330 331 330 329 328 325 325 325 323 324 322 323 327 326 321 322 328 327 325 324 322 323 325 326 326 327 328 329 332 333
303 302 301 301 302 303 304 305 305 305 305 305 305 305 305 305 305 306 306 307 307 307 307 309 309 311 312 312 312 314 313 312 312 312 313 312 312 311 309 309 313 315 314 314 314 314 320 326 328 329 327 327 329 330 330 328 327 329 329 331 331 330 330 328 328 326 325 326 322 323 327 328 325 324 326 327 324 321 322 323 324 326 326 326 328 329 331 333
302 302 302 302 301 302 303 304 304 304 305 305 305 305 305 305 305 305 306 306 307 306 307 308 309 310 311 311 312 312 312 312 312 312 311 310 311 311 310 309 310 312 312 314 313 310 314 322 326 328 327 326 329 327 327 327 327 329 329 330 330 330 330 328 329 328 327 326 323 325 328 328 328 327 326 327 325 322 322 324 324 325 325 326 328 328 330 332
301 302 302 302 302 302 303 304 304 304 304 305 305 305 305 306 305 305 305 306 306 307 306 307 308 310 310 310 311 311 312 312 313 313 312 310 310 311 310 309 309 309 311 313 312 307 309 318 324 328 327 326 327 325 325 328 328 330 331 331 331 331 331 328 328 328 328 326 323 327 328 326 327 328 327 327 325 324 324 326 325 325 325 325 326 327 327 330
301 301 301 302 303 303 303 303 304 304 304 305 305 305 305 306 306 305 305 306 307 306 306 306 307 309 309 308 310 310 310 312 312 312 313 311 311 313 311 308 309 310 312 313 312 308 308 316 324 328 327 325 326 326 328 329 329 331 332 332 332 331 331 329 327 327 328 326 324 328 329 326 326 326 327 326 324 324 326 326 326 326 325 325 325 325 326 327
301 301 301 302 302 303 303 303 304 304 304 305 305 305 305 305 306 306 305 306 307 306 306 306 307 308 308 308 309 310 311 312 312 311 313 311 311 314 312 310 312 314 315 315 314 313 313 319 325 327 326 326 327 327 327 328 329 330 331 330 330 331 330 329 327 326 326 327 325 327 328 326 324 325 325 324 323 324 325 326 327 327 326 325 325 324 325 326
301 300 301 302 302 303 304 304 304 304 304 305 305 305 304 305 305 305 305 306 306 306 306 306 307 307 308 309 308 310 312 313 312 311 312 311 311 313 314 315 316 317 318 317 316 318 318 320 323 324 326 326 326 326 325 324 325 327 328 328 328 329 330 329 328 326 326 328 327 326 327 326 324 324 325 324 323 323 324 326 326 327 327 326 326 325 324 325
301 301 301 302 302 303 304 304 304 304 304 304 304 303 303 304 304 304 305 306 305 306 306 306 307 307 308 308 308 310 313 312 312 312 311 311 311 312 314 317 318 318 318 317 318 319 318 320 321 322 324 325 325 326 324 322 321 324 326 327 326 328 329 329 328 327 326 328 328 328 327 327 325 324 325 324 323 323 324 325 325 325 326 326 325 324 323 323
301 302 301 301 302 303 304 305 304 304 304 304 303 302 303 303 303 304 305 305 305 305 306 306 306 307 308 308 308 311 312 312 312 312 311 312 313 314 315 317 318 317 317 317 318 318 317 318 320 321 321 323 324 323 322 321 320 321 323 325 325 326 327 328 328 326 326 328 328 328 328 328 327 326 325 324 323 323 323 324 325 325 325 325 324 323 323 323
300 302 301 301 301 303 304 305 304 304 304 304 303 303 303 303 303 304 305 305 305 305 305 306 306 307 308 308 310 310 310 312 312 312 311 312 314 314 316 317 318 318 317 316 318 317 316 316 318 319 319 319 322 322 321 321 321 320 321 323 324 324 324 326 328 325 325 329 329 328 329 328 327 327 326 325 325 324 324 323 324 324 324 325 324 324 323 323
300 301 302 301 301 302 304 305 304 304 304 304 304 304 303 303 303 303 304 304 305 305 305 305 306 307 307 308 309 309 310 312 312 312 311 312 313 314 315 315 317 319 317 316 318 317 316 316 315 316 316 315 318 321 321 321 321 320 319 320 321 322 322 324 327 325 323 327 329 328 328 328 327 327 326 326 326 325 325 324 324 324 324 325 324 324 324 323
299 301 302 301 301 302 304 305 304 304 304 304 304 304 303 303 303 303 303 304 304 305 305 305 306 306 307 308 308 308 309 311 313 312 311 311 311 313 314 314 316 317 316 317 319 318 317 315 314 314 315 315 318 320 321 321 322 322 321 321 320 320 322 323 325 325 323 325 328 327 327 327 326 326 326 326 326 326 325 325 325 325 324 324 324 324 324 324
299 301 301 301 301 302 304 304 304 304 304 304 303 303 303 303 303 303 303 303 304 305 305 305 305 305 306 307 307 308 308 310 312 312 311 311 311 311 313 315 315 315 317 318 318 318 317 315 314 314 314 316 319 321 322 322 322 322 322 323 322 322 323 323 324 324 323 324 325 325 326 326 325 325 326 325 325 325 325 325 325 325 325 325 325 325 324 324
299 300 301 301 301 302 303 303 303 303 303 304 303 303 303 303 303 303 303 303 303 304 304 305 305 305 305 306 307 308 308 309 310 311 311 311 311 311 313 314 314 315 316 317 317 316 317 315 313 314 315 316 317 319 321 323 323 322 322 323 322 323 323 323 324 324 324 324 324 325 326 325 324 325 325 324 324 324 324 324 324 325 325 325 325 325 325 324
299 300 300 300 301 301 302 303 303 303 303 304 303 303 303 303 303 303 303 302 302 302 304 305 305 305 305 306 307 307 308 309 309 311 311 311 311 312 313 313 314 316 315 315 316 316 316 315 314 315 315 315 316 317 319 321 322 320 321 321 320 321 322 323 325 325 326 327 324 326 328 325 321 323 324 324 323 324 324 323 324 324 324 324 324 324 325 325
299 299 299 300 300 301 301 303 303 303 303 303 303 303 303 303 303 302 303 302 302 303 304 304 305 305 305 306 307 306 307 308 308 310 311 311 311 312 312 313 312 314 314 314 315 315 315 314 314 314 314 315 316 316 317 318 319 318 318 320 320 320 321 323 325 324 325 326 324 325 327 324 320 320 323 324 324 323 323 324 324 324 324 324 323 323 323 323
298 298 299 299 300 300 301 303 303 302 303 303 302 302 303 303 301 300 302 302 302 304 304 304 304 304 304 306 306 304 305 307 308 311 311 310 311 311 312 313 312 312 313 314 317 316 314 315 315 314 314 315 316 315 316 317 317 318 318 319 320 320 320 322 323 322 321 322 324 325 326 324 323 321 321 322 322 322 322 322 323 323 323 323 323 323 323 323
298 298 298 298 299 300 301 302 302 302 302 302 302 302 303 303 301 300 301 301 302 303 304 305 304 303 304 307 305 303 305 308 308 310 311 311 311 311 312 314 313 312 312 314 317 316 314 314 315 315 315 315 315 314 314 316 317 318 319 319 319 320 320 321 322 322 322 323 324 324 325 324 322 320 319 320 319 319 319 319 320 321 322 322 322 322 322 322
297 298 298 298 298 299 300 301 302 303 302 302 302 302 302 301 300 300 300 300 301 301 303 306 305 304 306 307 305 303 305 307 307 309 311 310 311 311 311 313 313 313 313 313 315 316 314 314 314 314 315 315 314 313 314 316 317 318 319 319 319 320 320 321 322 321 323 324 323 321 322 323 321 318 319 320 318 318 318 318 318 318 320 321 321 322 322 322
297 297 298 297 298 299 299 300 301 302 302 302 301 301 301 301 299 300 300 300 299 300 303 306 304 305 307 307 306 304 304 306 309 310 310 310 311 310 311 312 312 314 314 312 313 314 313 314 315 315 315 315 314 314 314 315 317 319 320 320 321 321 321 321 322 320 323 325 322 318 319 321 321 318 318 319 318 317 317 318 319 318 319 321 321 321 321 321
297 297 297 297 298 299 299 301 301 301 302 301 300 300 301 301 299 299 300 299 297 300 304 305 305 306 307 307 307 305 304 306 309 310 311 311 311 311 312 312 313 314 314 313 313 313 313 314 316 315 315 315 314 315 316 316 317 317 319 320 320 320 321 322 322 322 322 322 320 317 316 320 321 318 315 316 316 316 316 316 318 319 320 321 322 321 321 321
297 296 296 296 298 299 300 301 301 301 301 300 300 301 301 300 300 299 299 297 295 300 304 305 306 306 306 306 307 306 305 306 308 310 311 311 311 312 312 312 313 314 315 315 314 314 314 314 315 315 315 315 316 317 318 318 317 316 318 320 317 317 321 321 321 323 322 319 317 316 317 319 320 317 314 314 314 315 315 316 317 318 319 320 322 322 321 321
296 296 295 296 298 300 300 300 301 301 300 299 300 300 299 299 300 299 298 297 296 300 303 304 306 307 307 306 306 306 305 306 308 310 310 310 311 312 311 311 312 313 314 314 314 315 315 314 315 315 315 316 316 317 318 319 319 317 319 319 315 316 319 319 319 321 321 319 318 316 318 319 318 315 315 314 314 315 315 316 317 317 318 320 321 321 321 322
296 295 295 297 299 300 301 300 301 301 299 299 300 299 298 299 300 299 298 298 297 299 302 304 305 306 306 306 306 306 306 306 308 309 309 309 310 311 312 312 312 312 312 314 314 315 316 316 315 315 316 316 316 316 317 318 319 318 316 317 316 315 317 318 318 319 320 319 319 320 321 319 317 316 316 315 314 315 315 315 316 316 317 318 320 320 320 319
295 295 296 298 300 300 301 301 301 300 299 300 301 300 299 299 298 298 298 298 298 300 302 303 305 306 306 306 306 306 306 306 307 308 308 308 309 310 311 312 312 312 312 313 313 314 315 316 314 313 315 316 316 315 314 316 318 318 316 317 318 316 315 316 316 317 318 317 318 321 321 318 315 316 317 316 316 316 315 316 316 316 316 317 317 317 317 317
294 295 297 300 300 300 301 301 301 300 299 300 302 301 300 299 298 298 298 298 299 300 301 301 303 304 304 306 307 306 306 306 307 307 307 307 308 308 310 311 312 312 311 312 313 314 314 314 313 313 314 315 316 315 315 316 317 317 319 319 318 316 316 316 316 316 316 317 317 318 319 318 316 317 315 316 317 316 316 316 316 317 316 316 317 317 317 317
294 296 298 300 300 300 301 301 300 300 300 301 302 301 300 300 299 299 300 300 300 300 299 299 300 302 302 303 306 307 307 306 306 307 307 307 307 307 308 310 311 312 311 311 312 313 314 314 313 312 313 314 314 315 315 314 314 317 319 319 318 316 316 315 316 316 316 317 317 315 317 318 317 318 315 314 316 317 318 317 316 317 317 317 317 317 317 317
294 296 298 300 300 300 300 301 301 300 300 301 301 301 300 300 300 301 302 301 300 301 300 298 300 302 302 302 304 307 307 307 307 307 307 307 307 307 307 308 309 311 311 311 312 312 313 313 311 311 313 314 314 315 317 316 315 316 318 318 318 318 318 317 317 317 316 316 316 314 314 315 316 318 315 313 315 316 317 317 317 317 317 317 317 317 318 317
295 297 299 300 299 300 300 301 300 300 300 301 301 301 300 299 300 303 303 302 301 301 300 300 300 301 304 304 303 306 307 307 307 307 306 307 307 307 307 306 308 310 310 311 312 311 311 313 312 310 311 314 315 315 316 316 315 315 316 317 317 316 317 318 317 316 315 315 315 314 313 314 314 315 314 314 314 314 315 316 317 317 317 317 317 318 319 318
295 297 299 299 299 300 300 300 300 300 301 301 300 300 300 300 301 303 304 303 302 301 301 301 300 300 303 305 305 305 305 305 306 306 307 307 307 307 307 306 307 309 310 311 311 309 309 311 312 310 308 312 316 315 314 315 315 315 315 316 316 315 315 316 316 315 315 315 315 315 314 313 312 312 313 313 313 314 315 316 316 317 317 317 317 317 318 319
295 297 298 298 299 300 300 300 301 300 301 301 300 300 301 301 301 302 303 302 302 302 302 302 302 301 302 304 304 305 305 304 305 306 307 307 307 307 307 307 307 308 309 310 310 308 308 310 311 311 309 311 314 313 312 313 315 315 314 314 316 315 314 315 314 315 315 315 315 315 314 313 311 312 312 311 312 312 314 315 315 317 317 317 317 316 317 318
295 297 298 297 297 300 300 301 301 300 300 300 300 300 301 301 301 301 302 302 301 302 302 302 303 302 302 303 303 305 305 305 306 306 306 306 307 307 307 307 307 307 309 310 310 309 309 310 310 311 311 311 311 312 312 314 315 314 314 313 314 314 314 314 313 313 314 315 315 315 314 314 313 314 312 310 312 313 313 314 314 315 316 316 316 315 315 314
295 296 297 297 298 300 300 301 301 300 300 300 300 300 300 301 301 300 301 302 301 302 302 302 302 302 302 303 304 305 305 304 305 306 306 306 307 307 307 306 305 306 308 309 310 309 309 309 310 311 311 310 311 311 310 312 314 315 315 314 313 314 314 313 312 311 312 313 314 315 314 314 314 315 313 312 313 314 314 313 312 314 314 314 315 314 313 312
295 296 296 297 299 300 300 300 300 300 300 300 300 300 300 300 301 301 301 301 301 302 302 301 302 302 302 303 304 304 304 304 304 304 305 305 306 306 306 305 304 304 307 308 309 309 309 309 309 311 311 311 312 312 311 310 312 314 314 314 314 314 313 313 313 312 311 311 312 313 313 312 311 313 313 312 312 312 312 311 311 312 314 315 315 314 313 314
295 296 296 297 298 300 300 299 299 300 300 300 300 300 300 300 300 300 301 301 301 302 302 301 302 302 302 303 304 304 304 303 303 303 304 304 305 307 307 305 304 304 306 308 308 308 309 309 309 310 311 311 312 313 313 312 313 313 314 314 315 314 313 314 314 313 312 312 311 311 311 310 310 311 311 312 312 311 311 311 311 312 315 316 315 314 315 315
296 298 297 297 297 299 300 299 299 299 299 299 300 300 300 300 300 300 300 300 301 301 301 301 301 301 302 302 303 303 303 303 302 302 304 304 305 308 308 306 306 306 306 307 307 306 307 309 309 309 309 309 309 311 312 313 313 313 314 314 315 314 314 313 314 313 313 312 311 310 310 309 309 309 310 310 311 311 311 312 311 311 313 314 314 314 314 313
296 297 297 297 297 298 299 299 299 299 299 299 299 300 300 300 300 299 299 299 300 300 300 301 301 301 301 302 302 302 303 302 302 302 303 304 305 307 306 305 306 307 307 307 308 307 307 308 309 309 309 308 308 309 311 312 313 314 314 314 314 315 315 315 314 313 313 313 313 312 310 310 310 309 309 310 310 311 311 312 311 310 312 313 312 312 311 309
295 296 295 295 296 297 298 298 298 298 299 299 299 300 299 299 299 299 298 299 300 300 299 300 301 301 301 302 302 302 302 302 302 303 303 303 304 305 305 305 306 306 306 307 308 307 308 308 308 309 309 309 308 309 310 311 312 313 313 313 314 315 315 316 315 314 313 313 313 312 311 311 311 309 309 309 310 310 310 311 311 310 311 311 310 309 309 310
292 293 292 293 294 295 295 295 295 296 297 299 300 300 300 300 300 300 299 299 300 300 299 299 300 301 301 301 301 301 301 301 302 303 303 303 304 304 304 304 305 305 306 307 306 306 307 308 308 308 308 308 308 309 309 309 310 311 312 313 313 314 314 315 314 314 314 314 313 312 312 312 311 310 310 310 311 311 310 311 311 310 310 310 310 310 310 310
289 290 291 291 292 292 293 293 294 296 297 299 300 300 300 300 300 300 299 299 299 299 299 300 300 300 301 301 301 301 301 301 302 302 302 303 303 303 303 304 304 305 306 306 306 305 306 306 307 308 309 309 308 308 308 308 309 310 311 312 313 313 314 314 314 314 315 315 314 314 314 313 312 311 310 311 311 311 311 311 310 310 309 309 309 310 310 310
289 289 290 291 291 292 293 294 295 296 298 299 299 300 300 300 300 300 300 299 299 299 300 300 301 300 300 301 301 301 301 301 302 302 301 302 302 303 303 303 303 305 306 306 306 305 304 306 307 308 308 309 308 308 308 308 308 309 310 310 312 313 313 313 313 313 313 314 315 315 315 314 312 311 311 311 311 311 311 310 310 310 309 308 309 309 309 309
288 289 289 290 292 292 293 294 295 296 298 299 299 300 300 300 300 300 300 299 298 298 299 299 300 300 300 301 301 301 301 301 301 301 301 302 302 302 303 303 303 304 305 306 306 305 304 305 306 307 307 309 308 308 308 308 310 310 309 309 310 311 312 312 312 312 312 313 314 315 314 313 312 312 312 311 311 311 310 310 310 310 309 309 309 309 309 309
Wind_Speed
21 21 21 21 21 21 21 21 22 22 22 21 22 22 21 21 20 20 19 19 18 18 17 17 16 16 16 14 11 11 12 12 13 15 18 20 21 20 16 13 8 6 9 10 8 8 5 6 6 5 5 3 2 2 2 2 2 3 4 6 7 7 6 6 8 5 1 2 4 4 4 4 4 5 3 2 4 3 3 5 3 2 4 2 2 3 3 11
21 21 21 21 21 21 21 22 22 22 22 22 22 22 22 22 21 20 20 19 19 18 18 17 16 16 16 16 12 10 13 14 16 20 25 26 25 24 20 17 14 10 7 7 5 5 6 6 6 7 6 4 3 2 3 2 3 5 5 6 8 7 5 6 8 7 3 4 6 4 3 3 1 4 5 5 5 4 6 6 5 5 7 4 2 3 8 13
20 20 20 20 21 22 22 22 22 22 22 22 22 22 22 22 21 20 19 20 19 18 18 17 16 16 15 16 14 11 12 14 16 21 26 22 18 20 19 17 18 16 11 8 4 3 5 4 3 7 6 5 4 3 4 4 4 5 5 6 9 6 4 5 8 9 5 3 6 5 3 3 2 3 4 4 4 5 7 6 6 8 10 8 5 7 10 13
20 20 20 20 21 22 22 22 22 22 22 22 22 22 22 23 22 21 19 19 19 19 18 17 16 16 15 15 15 13 9 10 12 12 14 9 7 12 16 17 19 20 17 13 8 4 4 4 5 6 6 6 4 4 6 6 4 4 5 9 7 4 5 7 9 9 6 3 4 6 4 4 3 3 4 4 4 6 7 6 6 7 7 8 8 8 12 14
20 20 20 20 20 21 22 23 23 22 22 23 22 22 22 23 23 22 21 19 19 19 18 17 17 16 16 14 15 14 6 5 3 5 3 2 5 10 14 17 18 19 19 16 11 7 6 6 6 5 7 7 6 5 8 8 4 3 8 11 5 3 6 7 9 7 4 2 3 5 5 4 5 3 6 6 7 3 3 3 6 6 2 5 10 10 12 13
20 21 20 20 20 21 22 23 23 22 22 22 23 22 21 22 22 23 22 20 19 19 18 18 17 16 16 15 15 15 10 3 3 10 7 5 1 4 7 13 16 17 18 15 10 9 8 7 8 8 7 8 10 9 9 8 5 6 9 10 7 4 7 3 5 5 4 6 7 6 4 4 5 5 4 6 9 1 6 3 1 0 1 4 10 12 12 13
20 20 21 21 21 21 22 22 23 23 22 22 23 22 21 21 21 21 21 21 19 19 18 18 17 16 15 16 15 13 12 7 4 10 8 10 7 5 5 11 15 17 17 16 13 11 9 10 11 10 9 8 11 12 9 8 8 9 9 9 8 7 9 3 2 3 6 8 6 4 2 5 9 6 3 6 11 6 5 4 2 2 2 5 9 11 12 13
19 19 20 21 21 21 21 22 22 22 22 21 23 22 22 21 21 21 21 21 20 20 19 17 17 16 15 15 11 8 10 13 9 9 8 9 13 13 9 14 16 16 15 17 16 14 11 13 14 10 10 9 8 11 10 8 9 12 11 8 5 5 9 6 0 1 5 5 1 3 6 9 8 2 3 8 11 9 4 4 2 1 3 6 9 11 11 12
19 19 19 20 22 21 21 22 22 22 21 20 22 22 22 21 21 21 21 21 20 20 19 17 17 15 15 13 9 7 9 19 20 13 8 4 8 11 9 12 15 15 13 13 13 15 12 12 15 10 8 8 8 11 11 10 9 11 13 9 5 5 6 5 5 6 4 3 2 6 11 10 4 1 6 11 12 6 4 4 3 3 5 6 8 10 11 11
19 19 19 19 21 22 22 21 21 22 22 20 20 22 23 21 21 21 21 20 19 20 19 17 17 14 15 10 10 10 3 12 26 24 17 12 6 2 4 8 13 14 13 11 11 14 12 11 14 7 4 5 8 8 11 11 6 9 14 11 9 7 4 4 6 7 3 3 5 8 13 7 5 4 8 10 12 7 3 5 4 4 7 7 7 8 10 11
19 19 19 19 20 22 23 22 21 22 22 21 19 20 22 21 20 20 21 20 19 20 19 17 16 14 14 9 9 9 2 4 19 25 27 23 18 16 8 5 11 14 12 11 13 14 11 10 10 6 2 4 7 5 7 8 2 6 11 10 11 10 7 6 7 6 4 4 6 8 13 7 7 7 11 8 6 5 7 8 6 7 8 7 8 7 8 10
20 20 19 19 19 21 23 22 21 21 21 21 19 19 21 21 19 19 20 20 19 20 19 17 16 13 12 10 11 12 6 6 7 10 18 22 24 23 17 11 9 13 12 11 13 15 13 7 6 10 5 3 7 4 4 5 2 4 6 8 11 11 12 13 11 9 7 5 6 5 11 12 10 10 13 11 5 2 6 9 8 9 9 7 7 6 7 8
20 20 20 19 19 19 22 23 22 21 20 20 19 18 19 20 19 18 18 19 19 19 18 16 15 14 11 8 10 13 15 18 15 11 11 12 17 19 17 15 13 13 12 11 13 17 19 9 6 11 6 3 6 2 1 4 3 5 6 7 8 9 14 14 13 11 11 7 9 7 9 12 14 16 17 14 8 6 7 9 9 8 8 8 7 6 7 8
19 20 22 21 20 20 21 24 23 21 19 19 18 17 17 18 17 17 17 18 18 17 16 15 16 14 10 9 9 10 14 19 18 17 16 10 8 11 11 13 14 16 14 12 11 15 23 14 8 8 4 3 4 2 2 4 4 8 6 5 8 11 10 11 13 13 12 7 11 11 11 11 11 14 18 14 11 11 12 13 12 10 8 7 7 7 8 8
18 20 23 24 24 23 22 22 23 21 19 18 17 16 15 16 15 15 15 16 15 15 15 15 16 11 5 10 11 12 16 14 11 14 18 13 6 6 9 14 16 16 16 14 9 10 20 15 7 7 5 2 3 5 5 4 5 8 7 7 11 13 7 7 10 15 15 7 11 14 9 9 11 9 12 10 10 13 14 15 15 14 12 10 8 8 8 8
20 20 22 24 26 27 24 22 21 20 18 16 16 15 14 14 12 12 12 12 12 13 12 11 13 10 5 6 4 6 12 12 12 16 18 15 10 6 9 13 13 12 12 11 8 7 12 10 5 5 5 4 6 8 6 5 6 8 10 10 12 15 11 7 6 12 17 9 13 17 8 5 7 8 10 8 10 13 14 16 17 16 14 13 10 9 8 7
21 22 22 23 26 27 25 21 19 19 17 16 15 13 11 10 10 10 9 9 9 9 8 7 7 8 6 6 3 5 9 10 12 18 20 19 14 9 10 8 8 9 8 7 6 6 8 8 5 4 5 7 8 8 8 10 11 10 12 11 12 15 14 10 4 6 12 8 10 17 13 9 5 5 9 8 9 12 13 15 16 15 14 13 11 9 8 8
22 24 24 25 26 26 24 20 18 17 17 14 12 10 7 7 8 7 6 5 4 3 5 6 5 6 6 8 8 6 9 12 14 17 19 18 13 11 11 7 7 12 9 5 5 6 7 7 6 6 7 9 10 10 11 12 12 12 12 11 12 13 15 14 6 5 10 8 9 14 15 16 12 9 10 8 7 10 13 14 15 15 13 10 9 9 9 9
24 24 26 27 27 26 24 20 17 16 15 10 7 6 3 2 3 3 5 6 4 2 3 5 7 6 2 5 7 7 10 11 14 14 13 13 12 11 10 8 9 11 9 6 7 9 7 6 7 9 10 12 14 16 16 9 6 12 14 11 11 10 11 14 8 6 11 10 11 15 14 15 17 17 17 12 9 10 12 13 13 13 11 9 8 8 9 10
24 25 26 28 27 26 24 19 15 13 12 7 5 3 2 3 2 3 5 6 7 8 4 2 8 11 5 5 2 7 11 10 11 10 11 13 13 11 6 6 9 9 8 9 9 10 8 8 10 12 15 18 19 19 19 9 3 9 12 9 11 10 9 11 9 6 8 10 12 15 15 16 17 18 19 17 14 13 13 12 12 12 12 10 10 10 10 11
25 26 26 28 28 26 24 18 13 11 10 7 7 4 2 4 3 2 3 5 9 12 11 6 8 13 10 3 5 2 5 9 12 10 14 15 13 11 5 6 10 8 10 11 9 8 9 10 13 18 19 19 18 18 19 15 8 7 9 9 10 11 10 8 9 7 5 7 11 13 16 18 18 17 17 16 16 17 15 13 13 15 15 12 12 12 10 9
26 26 25 27 28 27 23 16 11 10 8 6 8 6 4 5 3 2 1 4 7 12 15 12 10 12 10 5 1 0 3 6 14 11 14 15 12 11 6 7 12 10 12 12 7 8 10 12 17 20 18 15 16 17 19 19 14 8 7 9 9 10 9 5 6 7 5 6 9 11 15 17 18 18 17 17 17 16 15 14 14 15 16 15 13 11 11 10
26 26 26 26 27 26 21 14 10 8 6 7 9 8 5 6 5 1 1 3 4 8 11 13 14 13 11 8 4 4 5 5 9 10 16 15 10 11 8 8 13 13 13 13 11 10 10 14 18 17 14 14 14 14 16 16 14 12 9 9 9 9 10 6 6 7 6 6 5 5 10 12 14 16 17 18 18 15 15 17 16 15 16 17 15 12 12 13
25 25 26 27 28 26 19 12 9 5 6 8 10 10 7 5 6 3 2 3 4 4 8 12 12 12 13 10 6 8 8 6 4 7 15 15 10 10 10 9 12 14 12 14 16 14 12 11 12 14 13 15 13 11 14 13 12 15 15 13 10 10 12 7 5 7 6 7 4 3 9 11 13 16 16 14 15 17 17 18 18 17 16 15 15 14 13 14
26 25 26 26 27 27 19 11 7 4 5 7 11 13 9 7 7 5 2 2 4 2 4 7 7 9 13 10 9 8 6 7 7 8 12 15 13 9 8 7 7 13 16 17 17 14 14 9 10 15 15 15 14 12 16 15 12 15 17 18 16 13 12 8 6 8 6 8 8 7 9 10 11 17 17 12 13 18 17 18 20 18 15 15 14 14 13 12
26 25 26 25 26 27 18 8 4 3 6 7 11 12 11 9 7 6 3 1 5 3 4 6 6 9 12 11 11 8 4 8 9 11 15 17 14 7 7 6 3 9 16 16 12 8 11 11 12 15 15 16 16 14 17 17 13 13 13 18 19 15 13 11 10 9 7 6 5 9 9 10 8 13 16 14 16 20 18 18 20 18 15 14 13 13 12 12
26 26 27 26 26 26 15 6 4 3 5 7 10 10 11 10 7 5 2 3 4 3 5 6 6 6 9 13 16 11 5 6 7 11 16 20 15 6 7 8 5 7 7 6 8 5 8 14 14 14 15 16 16 14 17 18 14 9 5 12 17 17 16 14 11 10 8 4 1 6 10 11 10 11 13 15 18 20 19 19 18 16 16 15 13 13 13 12
27 27 27 26 26 24 16 10 7 6 7 9 8 8 11 11 8 4 1 2 1 3 2 2 3 2 4 13 19 12 5 7 9 11 17 22 16 6 8 11 9 10 9 7 8 8 12 17 17 17 15 12 13 13 15 17 15 5 6 9 14 16 16 12 11 11 9 7 6 8 9 10 13 11 10 16 19 19 19 21 18 14 15 14 13 13 13 14
28 28 27 27 27 23 17 11 10 10 11 10 7 9 13 12 7 2 2 3 1 2 1 0 1 2 5 12 17 14 7 5 5 8 14 18 12 3 5 10 9 11 12 10 10 8 8 10 13 17 13 10 12 13 14 17 14 5 8 6 7 11 13 11 11 9 7 9 11 12 12 10 12 9 8 13 17 17 17 17 18 16 13 11 11 12 12 12
28 29 29 29 27 22 17 13 14 13 11 9 9 15 16 8 3 1 3 2 1 1 1 2 3 5 8 11 12 14 13 8 3 6 9 11 11 6 2 5 8 8 8 8 10 10 3 1 5 11 10 10 13 13 15 18 12 8 8 4 4 6 9 9 9 7 7 9 12 17 18 13 12 10 9 11 12 12 11 11 13 15 13 10 9 10 12 11
29 31 31 31 27 20 13 11 12 13 11 9 11 16 11 3 1 3 3 0 1 2 2 3 5 6 10 12 10 11 14 10 5 7 8 8 10 10 4 3 4 5 6 5 8 12 7 2 3 5 8 10 12 12 13 14 12 10 7 6 5 4 5 6 7 7 9 10 13 19 21 17 15 11 5 6 9 13 13 12 13 14 13 11 10 10 11 11
31 32 33 30 24 17 11 10 8 9 11 11 13 9 5 3 2 5 3 2 1 2 2 4 6 7 12 13 9 11 14 10 7 8 9 8 8 9 8 8 7 5 6 5 7 11 10 10 6 1 4 11 13 11 7 8 11 11 9 9 8 6 5 7 8 7 10 11 9 14 18 16 17 16 9 6 4 8 10 9 11 15 14 12 11 11 10 9
32 33 34 27 17 13 12 13 10 9 12 15 11 2 1 4 4 6 5 1 1 1 1 1 5 8 12 12 9 12 13 9 9 9 9 10 9 9 12 13 12 8 4 5 9 9 6 10 10 3 2 9 14 12 7 6 11 13 12 10 10 9 8 9 9 7 10 11 6 11 16 11 11 15 16 18 14 6 6 6 7 10 12 11 9 9 9 8
33 33 31 20 11 9 10 11 11 12 15 14 7 1 2 4 4 4 7 6 2 1 1 1 3 7 9 9 9 11 11 9 11 10 9 10 9 9 11 13 15 10 2 5 8 8 8 7 9 9 5 10 16 15 11 9 11 13 12 10 10 9 8 9 9 10 11 8 3 10 12 8 9 5 2 11 18 15 14 12 9 10 10 9 7 7 8 7
34 32 24 12 7 6 5 8 11 16 17 10 3 3 6 6 3 3 5 6 2 1 1 1 1 3 4 6 7 10 10 8 11 11 9 11 10 10 10 10 14 12 6 7 5 6 11 7 10 16 11 12 17 15 13 12 10 11 10 10 11 10 9 8 5 6 7 6 4 7 7 6 9 7 2 2 6 12 18 16 14 15 12 11 10 8 8 7
33 28 17 6 6 6 4 8 13 20 15 6 3 6 7 5 2 2 2 3 3 2 1 1 1 2 4 3 5 11 9 5 10 11 8 11 11 12 11 8 12 14 10 9 5 4 9 6 10 16 13 14 18 16 16 14 9 7 9 10 7 5 7 8 4 1 3 9 8 8 10 8 8 12 11 10 5 9 12 12 11 13 12 13 12 9 9 9
27 21 12 7 8 6 4 9 17 20 11 4 6 7 4 2 0 2 1 0 0 2 2 4 3 3 4 3 3 8 7 4 9 9 6 9 10 11 13 10 11 15 13 12 8 3 6 5 4 12 16 16 14 14 14 13 10 7 9 10 4 2 1 4 6 5 7 10 9 11 15 13 9 8 8 14 13 11 11 10 10 10 10 11 10 9 10 11
22 15 9 6 6 3 4 10 18 15 5 4 8 7 2 1 2 1 1 2 2 2 5 5 4 3 3 4 3 5 7 5 7 7 6 7 6 10 15 12 11 15 17 16 10 3 5 6 2 9 16 11 8 9 9 10 11 5 4 9 7 2 4 6 7 9 11 11 9 13 16 13 12 8 4 10 14 12 12 11 11 10 9 9 9 10 12 10
16 9 3 4 7 2 5 12 15 8 2 5 8 6 1 1 3 2 2 3 3 3 6 5 3 2 2 3 2 4 7 6 6 6 6 5 5 11 16 12 11 15 18 16 8 3 5 8 5 4 7 7 7 8 9 9 9 3 2 8 6 3 6 9 8 6 10 11 10 12 13 11 11 12 11 11 10 8 10 11 12 11 9 8 8 9 9 8
10 5 1 7 10 1 9 12 11 5 3 4 4 3 1 1 3 3 3 3 2 3 4 4 3 3 3 2 3 2 5 6 6 5 4 5 4 8 13 13 11 14 17 14 9 4 2 7 8 1 2 4 6 9 14 16 13 7 8 11 8 5 4 6 8 7 8 10 10 10 11 9 6 8 13 15 12 9 8 9 10 11 10 9 8 8 7 7
7 3 1 8 12 3 11 8 5 4 4 5 4 3 1 1 2 3 2 2 3 2 1 3 5 5 3 2 3 3 4 4 6 6 4 4 5 5 7 10 11 12 14 12 10 7 3 4 7 4 3 6 7 9 12 14 15 13 11 12 12 10 8 7 10 9 7 8 10 10 11 8 3 3 8 12 13 13 12 12 12 11 11 10 7 7 6 5
4 2 3 11 13 4 10 4 4 3 3 5 4 3 2 1 1 3 3 1 2 2 0 2 5 5 3 3 3 3 4 4 5 6 4 5 9 7 2 5 6 7 9 10 10 10 5 2 5 4 5 8 6 3 2 5 9 13 12 11 13 12 11 10 10 9 8 10 9 9 11 7 1 2 4 6 6 7 9 11 10 8 9 8 7 6 5 4
2 5 7 11 8 6 6 3 4 3 4 3 1 3 2 1 1 2 1 1 2 2 2 2 4 6 5 4 3 3 4 4 5 7 7 6 8 9 6 8 8 5 5 8 10 8 5 2 5 3 2 3 3 2 2 2 5 10 10 10 12 13 13 12 10 8 8 9 9 9 11 9 3 1 2 1 0 1 3 5 6 6 6 6 6 4 4 4
3 5 5 5 3 7 4 3 4 4 5 2 1 5 4 1 3 4 3 3 3 2 3 4 4 6 5 3 3 4 4 4 5 7 6 5 4 6 11 13 9 4 5 6 6 5 6 6 6 5 3 3 4 4 3 2 4 7 10 13 16 17 18 15 10 7 7 8 10 10 9 8 5 3 3 2 3 3 4 5 6 7 6 5 4 2 3 3
4 3 3 2 2 5 3 2 3 6 5 1 2 6 5 3 4 6 7 6 5 3 4 5 4 4 5 3 2 4 5 5 5 4 3 5 3 3 9 13 11 8 9 10 7 3 5 9 8 7 8 8 7 6 6 6 7 8 11 16 19 21 22 17 10 10 10 9 11 12 9 8 8 7 7 7 5 7 9 7 5 5 5 4 2 2 3 3
2 2 2 2 1 3 3 1 2 6 5 4 4 5 7 7 4 4 5 6 7 6 5 6 4 4 6 6 4 4 6 7 6 4 4 6 4 2 5 8 9 10 12 16 11 1 2 8 10 12 14 12 10 9 7 6 8 10 14 18 19 21 23 18 13 13 12 10 12 13 12 13 15 16 14 11 10 12 13 10 8 6 6 5 4 3 3 4
2 1 2 2 0 2 3 2 2 4 3 3 3 2 5 7 4 2 4 5 4 4 5 6 8 9 9 9 8 6 5 6 6 5 6 8 6 4 2 4 7 12 12 12 9 4 1 6 11 16 19 18 17 14 10 8 9 13 16 20 20 20 21 21 17 15 14 13 13 13 16 19 19 20 20 16 14 14 15 12 9 8 8 6 5 5 5 6
2 1 2 2 1 2 2 2 4 5 5 4 2 2 6 9 7 5 5 3 1 2 3 4 9 15 15 12 9 6 4 5 7 8 8 8 7 6 4 3 6 9 8 5 3 4 3 5 8 13 18 21 21 18 13 11 11 13 15 17 19 19 20 20 19 19 19 17 14 14 20 22 19 21 23 19 16 16 16 11 7 8 9 6 5 6 7 8
3 2 2 2 2 4 5 7 8 8 8 8 4 5 8 11 12 10 6 2 2 5 7 8 10 13 15 14 11 8 6 7 8 9 8 8 7 6 5 5 5 5 6 4 2 3 3 5 8 11 15 19 21 19 16 13 12 15 17 18 19 18 20 20 19 21 23 22 17 16 20 20 17 19 22 20 16 15 12 7 7 9 9 8 7 8 9 9
2 2 3 4 4 6 6 7 6 6 7 8 6 6 8 11 14 12 7 6 7 4 7 12 14 9 10 12 11 12 13 13 13 12 8 6 7 5 4 5 4 3 5 5 3 3 4 6 9 9 10 15 18 20 20 17 14 15 17 19 20 19 19 19 18 18 20 19 18 19 20 17 14 17 21 20 16 12 11 11 10 10 10 10 10 11 11 11
2 4 4 4 5 5 5 5 4 5 5 6 6 5 7 11 14 12 7 8 12 9 7 12 14 9 9 11 13 18 20 17 17 16 9 7 7 5 4 6 5 4 5 5 3 4 5 6 7 7 7 10 13 17 20 19 17 19 19 18 18 17 15 15 15 16 17 16 18 20 18 14 14 17 19 21 19 14 14 15 14 12 12 13 13 14 14 12
3 5 4 3 4 4 5 5 5 6 4 5 7 6 7 10 10 9 7 6 11 14 12 13 13 8 9 15 17 17 13 11 16 16 10 9 10 8 7 8 7 6 6 5 4 4 5 5 6 7 7 9 12 15 18 18 16 15 14 14 15 15 14 15 16 18 21 19 16 16 16 16 18 18 18 20 21 18 17 16 14 13 13 12 13 15 15 13
Wind_Direction
310 308 306 305 302 300 298 295 292 289 287 285 283 281 281 280 278 276 273 270 271 276 278 279 282 279 262 250 256 266 268 268 269 264 255 253 258 263 264 260 246 220 233 256 278 278 265 225 202 185 195 198 226 222 181 181 186 201 211 220 226 219 206 184 188 193 222 188 151 140 184 201 156 162 179 177 208 207 184 196 192 199 224 245 27 20 134 150
310 308 307 305 301 299 296 294 291 288 285 284 282 279 279 279 278 276 273 270 268 270 275 278 279 281 272 255 245 255 264 266 271 266 263 266 270 271 263 249 236 212 217 252 278 279 248 222 195 184 199 203 187 203 200 172 187 210 216 218 226 224 191 175 195 193 204 198 155 132 186 209 172 153 170 200 190 185 212 203 194 217 214 193 130 125 142 156
309 308 307 305 304 300 297 293 289 287 285 283 281 278 277 276 276 275 273 271 267 266 269 275 277 279 278 261 243 245 260 271 277 270 271 274 266 262 257 244 228 210 213 236 253 267 252 252 228 200 202 210 192 191 204 178 186 217 218 221 227 217 178 182 205 201 203 194 167 161 161 199 216 152 173 206 184 186 221 215 196 222 220 191 153 149 155 165
309 307 306 305 306 304 300 294 289 285 284 282 279 277 275 273 273 273 273 270 267 264 264 269 273 275 277 267 248 241 256 282 278 260 263 264 236 243 242 233 222 213 217 227 230 239 248 260 258 222 201 204 188 189 207 189 184 202 205 228 228 191 201 203 206 210 199 209 200 163 155 201 172 159 199 196 192 204 221 227 219 235 227 178 156 159 167 174
310 307 306 305 306 305 303 298 291 284 281 280 278 276 274 272 271 270 270 269 267 262 260 264 269 271 273 270 249 229 221 286 278 149 159 201 239 249 236 223 216 210 211 215 217 228 242 239 231 210 206 205 177 190 213 195 182 203 210 233 240 169 223 208 199 209 168 189 217 175 192 188 136 181 215 210 229 218 148 194 224 245 267 156 164 164 171 183
310 309 308 306 305 304 304 302 295 285 279 277 275 274 272 271 269 267 268 268 265 261 258 259 264 267 266 269 251 216 196 235 106 121 103 65 259 258 232 213 202 198 197 197 196 206 222 219 207 197 203 207 192 197 203 183 185 222 216 229 238 215 231 209 185 201 162 191 202 199 209 148 169 213 204 218 242 219 92 109 145 94 27 142 159 162 176 189
310 311 310 307 305 304 304 303 300 290 279 274 273 272 270 270 268 267 267 266 264 261 258 256 261 264 263 270 254 213 200 216 144 146 119 68 66 79 148 172 177 185 184 183 181 192 203 201 206 200 198 206 201 201 192 173 192 226 222 215 220 217 227 232 87 182 197 209 199 198 216 185 209 218 170 212 241 236 115 115 95 71 118 152 162 173 186 192
311 310 308 308 307 304 303 302 303 296 284 275 272 271 267 267 267 266 265 264 264 261 258 256 257 260 262 269 256 222 216 216 189 166 149 87 71 73 105 143 163 178 183 188 181 184 192 198 206 199 208 208 191 196 183 172 197 221 224 207 200 209 225 229 84 202 216 225 186 180 218 218 215 198 196 218 240 242 150 131 170 155 166 177 187 189 192 195
311 309 308 309 308 305 303 302 302 297 289 279 273 271 266 262 263 265 263 261 262 260 259 256 255 258 259 265 258 246 229 218 214 207 201 167 93 78 93 137 164 172 184 201 189 188 188 198 205 200 228 214 186 196 182 191 209 209 217 216 205 210 218 217 225 228 212 219 191 204 225 220 179 99 238 234 241 237 127 159 189 181 199 200 202 198 198 201
311 311 308 308 309 307 304 302 301 297 292 284 274 271 267 262 260 263 262 260 262 260 259 256 255 258 256 258 254 256 260 224 226 225 230 234 217 184 96 133 167 173 182 201 203 201 193 198 203 198 282 226 195 201 185 202 209 185 210 224 224 224 204 185 223 220 195 220 202 223 241 215 145 208 232 224 233 233 179 196 181 200 223 213 208 203 203 209
313 311 308 306 308 309 306 303 301 297 292 286 276 269 266 262 259 261 261 259 261 259 257 256 254 255 255 252 244 248 47 220 230 228 234 241 242 243 236 171 170 179 182 193 207 213 209 209 203 192 274 215 194 203 197 207 181 170 200 223 232 239 230 208 225 213 186 223 200 225 258 232 151 208 231 211 211 229 230 225 201 212 231 221 214 205 203 214
314 312 310 308 309 310 308 304 303 298 291 286 277 269 264 263 259 259 261 258 258 258 255 254 250 247 252 254 246 246 248 250 246 235 239 244 246 246 241 224 197 192 188 188 205 216 223 241 229 204 200 190 185 190 212 194 155 167 183 220 226 236 240 219 218 213 198 209 171 189 260 245 204 210 229 221 193 188 230 234 219 216 228 225 215 208 211 215
317 315 312 312 312 312 310 307 306 301 293 286 279 269 263 264 259 255 260 258 253 252 252 255 251 243 245 252 249 243 245 254 262 270 272 261 247 246 242 233 228 222 210 200 206 212 216 242 270 218 201 210 190 144 175 152 148 182 189 232 222 234 244 215 202 205 205 197 150 169 245 241 224 219 226 222 201 201 226 235 230 222 224 222 216 216 221 215
320 319 316 316 317 314 311 307 306 304 295 286 279 270 264 263 260 254 256 258 254 247 246 254 248 237 239 252 251 241 244 254 254 254 265 272 236 228 226 218 220 226 223 216 218 212 210 222 268 238 212 231 195 125 163 143 181 199 191 229 222 236 239 191 181 184 198 194 157 194 245 246 232 216 221 221 198 208 229 233 233 229 226 222 219 221 227 222
323 321 320 321 321 317 312 306 305 305 296 285 277 270 265 264 263 257 253 257 258 247 240 251 246 230 242 260 255 247 242 242 232 229 242 244 215 199 195 192 198 211 215 216 225 214 205 213 248 230 197 189 184 183 187 165 198 205 201 216 217 229 227 177 178 181 192 190 172 201 238 245 240 214 212 211 188 209 231 235 235 233 230 228 224 224 229 230
325 323 324 324 323 319 313 305 303 303 297 285 275 267 264 265 267 260 255 255 257 246 234 246 243 223 248 265 234 218 215 208 212 223 230 228 220 198 171 174 182 192 201 208 218 203 195 204 234 230 203 185 195 195 196 202 207 207 213 219 212 218 226 209 187 190 200 189 184 208 229 232 230 216 215 201 180 204 227 236 237 234 233 232 230 229 226 231
328 327 329 327 325 320 314 306 300 300 297 285 273 270 267 268 269 261 260 256 250 241 227 242 235 212 246 267 223 205 194 185 204 215 216 219 221 190 152 146 157 163 163 179 195 178 178 193 207 225 209 203 205 196 200 215 214 208 212 224 218 215 223 215 183 196 209 208 198 211 230 236 221 204 217 209 189 203 220 234 239 236 236 232 231 234 230 234
332 332 334 332 329 322 315 308 300 299 298 289 278 281 277 267 268 255 236 226 233 243 237 250 232 207 240 251 237 206 184 185 193 200 203 207 208 184 160 142 150 153 146 157 181 170 176 193 200 213 209 207 207 197 205 214 213 208 204 216 221 216 222 220 210 177 191 215 218 209 223 234 237 238 229 215 192 204 220 232 240 241 239 235 231 235 236 235
334 334 337 337 334 326 318 310 303 299 299 297 282 278 277 242 254 222 185 176 178 175 221 218 197 207 263 269 243 185 171 190 192 192 186 178 180 177 162 146 152 157 158 175 181 173 173 186 199 211 211 206 205 204 209 213 214 212 207 210 217 217 223 223 217 177 181 202 216 215 223 227 230 239 239 228 204 206 219 228 242 247 245 245 239 236 239 237
336 335 339 340 338 331 322 313 305 298 294 284 241 218 210 199 215 213 184 187 210 216 243 218 202 235 282 6 337 171 173 184 183 183 176 166 161 165 165 149 160 174 184 186 177 171 175 189 200 208 211 207 206 210 213 217 229 216 212 210 216 221 227 219 205 178 186 209 218 220 229 229 226 233 239 238 230 226 221 219 234 246 247 245 241 238 238 238
339 337 340 343 343 336 326 318 305 293 288 259 202 185 226 215 213 240 189 212 229 226 247 252 216 243 259 335 15 126 178 181 180 183 180 174 160 163 190 180 175 189 197 188 167 166 185 201 209 210 213 212 210 212 215 220 227 218 214 213 214 220 225 214 195 173 176 221 232 226 233 238 232 234 239 240 240 238 232 222 225 238 244 244 240 240 241 245
339 338 340 343 345 338 329 322 303 289 283 238 203 208 245 226 220 16 109 237 239 220 235 244 237 253 257 268 307 26 310 203 187 182 172 173 173 177 189 192 193 196 195 187 164 174 197 212 216 212 212 214 213 210 212 218 222 218 212 214 219 216 213 208 190 174 165 222 245 237 240 247 241 239 241 241 242 244 243 236 230 233 241 243 240 238 240 245
339 339 341 344 346 341 334 327 309 286 250 213 208 216 233 235 225 143 118 271 266 212 218 228 232 241 239 245 222 192 267 239 195 187 173 170 179 188 189 194 203 202 193 186 181 185 198 216 219 212 211 214 214 210 210 215 221 223 217 215 221 207 204 218 200 181 185 226 255 254 254 258 249 241 238 239 244 248 247 243 239 234 237 244 244 238 236 238
339 340 340 343 346 344 342 332 317 287 227 213 218 219 218 229 221 192 185 265 281 221 215 220 225 236 229 219 191 197 234 240 209 191 177 173 174 187 199 198 200 206 200 192 195 201 212 218 206 199 207 212 212 210 210 212 216 224 223 219 223 205 206 222 182 170 201 234 244 266 272 264 246 241 237 234 240 245 243 242 242 235 230 238 244 240 236 235
339 339 339 342 345 346 342 321 307 276 226 220 230 230 217 210 213 202 177 267 268 227 204 212 216 231 221 195 171 185 224 232 219 190 177 186 184 174 198 202 199 208 202 197 202 213 222 203 164 189 204 203 206 208 209 212 215 225 224 221 225 213 206 205 162 167 205 234 220 214 256 264 239 235 234 226 232 240 238 235 238 236 225 223 231 236 235 233
338 338 338 339 342 344 339 312 298 261 229 234 244 237 214 207 202 180 159 264 252 198 160 181 187 202 196 175 163 164 226 239 213 180 175 194 196 173 195 192 187 217 203 198 205 218 224 198 173 196 199 192 204 211 208 209 217 229 221 213 220 220 213 203 186 190 213 236 211 193 230 267 255 233 226 215 224 237 237 231 232 235 231 220 219 227 228 229
337 337 336 336 338 341 338 313 300 244 232 261 262 237 213 209 187 159 168 263 242 155 140 169 177 184 183 171 158 158 216 200 172 180 180 190 193 188 213 190 176 218 203 196 207 198 202 199 193 197 192 191 204 212 205 202 215 232 188 189 208 217 220 212 204 216 226 243 237 193 225 264 267 245 226 209 215 230 237 238 234 228 231 229 221 222 222 223
334 334 334 334 332 331 325 300 273 232 241 272 276 236 205 187 168 153 178 261 272 96 122 193 168 137 159 166 163 175 207 140 157 195 185 187 187 185 221 203 192 204 188 187 210 196 192 199 198 192 194 200 203 210 203 198 216 222 126 171 202 210 217 213 213 227 232 238 240 210 211 253 265 252 221 208 215 225 229 237 240 230 228 228 222 223 223 221
331 330 331 332 328 324 321 295 256 248 254 257 251 201 175 159 148 141 218 231 17 75 186 242 153 160 152 164 178 196 202 152 177 185 171 185 187 168 228 213 208 211 198 202 221 216 200 206 204 195 198 203 200 207 198 197 213 184 126 161 195 202 210 211 217 227 226 231 234 219 206 232 266 257 200 201 219 224 225 230 237 238 230 217 215 225 227 226
330 326 327 330 326 320 318 293 260 256 255 240 204 164 152 151 164 193 225 220 50 124 178 127 180 193 160 163 190 206 205 198 172 137 158 184 190 190 251 227 217 221 211 216 238 243 257 8 208 201 204 202 197 200 195 196 191 136 126 134 137 183 204 212 222 224 227 235 230 223 214 219 260 263 210 211 218 207 214 222 223 232 231 212 211 225 228 228
330 326 325 327 321 311 302 287 269 250 237 213 175 155 145 142 198 208 211 94 43 168 161 178 187 173 168 177 191 201 208 210 165 151 175 187 193 195 198 206 200 216 214 207 236 244 244 230 179 195 209 199 198 203 197 191 171 148 160 159 146 173 194 211 219 215 228 238 227 221 215 214 240 255 207 210 210 188 200 213 204 214 226 219 215 221 227 230
330 325 323 323 317 302 268 261 277 244 216 180 159 164 167 145 180 223 205 59 31 177 160 210 189 171 182 191 193 193 204 210 182 180 187 185 197 197 200 202 175 192 218 191 209 227 229 223 198 163 219 197 197 203 191 175 175 186 189 170 176 191 191 207 212 211 222 237 234 208 204 213 237 250 246 244 213 168 188 206 198 208 218 216 215 218 224 230
329 323 322 322 314 295 261 250 254 225 190 162 157 187 169 164 204 217 198 178 240 161 34 243 194 190 189 190 200 196 198 204 188 193 197 189 201 208 216 216 195 201 224 186 206 213 213 219 201 178 221 197 198 199 190 176 182 196 191 177 190 193 199 213 211 217 221 236 244 182 187 214 243 251 253 245 237 207 202 207 194 206 215 218 218 218 225 230
328 325 324 323 311 292 265 245 231 197 165 153 158 108 132 195 209 171 195 222 263 350 344 350 195 204 201 201 203 187 190 205 190 190 199 192 205 216 219 223 212 212 222 198 216 209 209 220 187 182 184 186 201 206 195 177 181 200 196 192 205 196 205 217 210 220 222 231 221 168 183 213 222 232 268 235 232 228 232 229 214 215 216 221 231 225 230 233
329 329 330 326 317 304 248 227 210 178 159 152 166 172 186 217 202 147 204 218 231 319 280 328 189 206 227 228 214 192 195 211 192 190 203 197 206 214 211 218 213 209 205 208 218 202 219 229 171 186 193 179 196 207 194 183 189 205 200 203 214 205 212 227 224 222 222 234 212 186 212 230 238 269 337 202 208 208 227 231 222 227 221 215 229 227 225 227
331 335 338 324 322 320 224 209 191 173 163 160 187 197 214 234 191 151 197 198 199 172 138 277 227 229 254 234 215 209 212 221 195 193 204 201 208 216 213 212 204 206 207 206 213 199 222 227 164 181 197 190 194 197 190 190 189 193 202 208 212 212 222 235 247 147 195 234 224 210 237 245 265 278 253 232 194 167 213 226 216 226 220 214 226 224 220 224
333 337 331 308 321 319 234 203 183 172 166 176 204 214 230 284 214 162 150 120 208 167 188 243 215 202 229 219 219 209 204 220 202 195 196 199 209 216 217 218 200 202 211 215 229 218 212 242 166 178 199 201 198 194 193 202 201 193 203 196 162 38 264 230 237 220 211 236 230 213 229 233 236 253 232 224 216 186 198 214 213 218 207 210 224 223 225 227
330 325 308 305 332 326 228 198 179 168 158 200 221 231 218 286 293 334 325 325 344 187 207 233 214 196 217 223 233 184 173 196 198 196 200 195 204 202 207 221 205 199 213 218 229 227 202 238 248 192 198 188 171 183 197 219 222 231 215 187 173 193 203 198 223 229 222 233 239 224 230 232 225 228 209 211 217 205 196 203 216 219 200 201 214 221 230 230
330 326 320 347 348 344 190 186 174 163 181 207 222 231 184 288 272 297 288 291 309 239 232 243 227 248 261 241 253 171 174 208 206 202 207 194 201 196 195 209 203 198 206 209 218 244 221 227 229 204 192 161 153 187 203 214 218 252 229 194 194 229 216 207 213 229 228 233 241 234 233 234 225 230 230 223 220 207 192 198 217 224 214 204 202 213 225 225
339 329 316 354 352 31 170 175 170 173 214 209 228 232 117 335 263 263 255 248 265 249 259 264 230 240 243 241 289 216 193 231 231 221 213 190 203 205 200 206 202 195 197 197 209 224 232 234 223 176 107 165 181 196 202 204 198 194 207 202 199 210 221 224 226 232 237 237 239 235 236 238 227 223 226 228 233 223 197 200 215 220 221 214 201 206 213 216
336 322 240 354 354 141 160 169 180 189 216 228 248 252 286 290 258 283 265 224 243 244 305 278 239 246 237 224 274 224 186 227 227 224 228 200 208 220 216 216 209 199 191 191 210 205 168 238 225 195 184 203 211 206 209 214 201 192 203 203 200 202 201 217 227 225 231 238 238 241 246 246 226 205 213 220 232 231 218 218 219 212 214 215 205 202 207 216
327 317 267 327 329 191 161 178 201 195 229 238 242 244 279 316 263 285 278 272 283 254 253 258 238 245 245 233 255 211 201 226 213 213 226 218 217 219 287 297 257 229 201 193 211 205 177 215 235 228 210 205 214 219 271 267 218 206 210 205 203 206 203 212 218 209 215 224 226 242 253 249 142 133 204 209 226 234 226 226 224 210 209 218 212 193 192 212
320 298 290 313 302 191 173 229 210 207 235 240 288 241 248 287 234 273 309 287 278 252 225 231 228 235 240 240 235 211 226 232 211 211 212 216 221 214 244 287 297 295 241 207 206 194 166 196 228 247 249 210 240 280 348 334 221 216 220 211 210 210 206 216 221 214 221 219 213 235 247 244 227 151 181 164 93 285 259 232 220 216 220 233 229 192 181 209
300 284 292 322 249 188 206 247 228 246 241 209 257 234 227 235 228 239 246 225 222 223 239 243 239 239 235 222 218 217 220 219 226 233 222 225 228 190 209 231 232 223 227 224 217 187 178 198 205 219 232 209 223 234 223 198 191 212 220 212 213 213 211 218 226 234 242 220 213 232 243 242 239 196 183 179 157 203 236 220 210 216 219 222 220 187 193 215
304 272 252 302 230 203 232 260 254 268 264 244 251 236 230 231 228 230 234 235 226 209 244 261 263 250 235 215 218 221 214 216 236 254 238 244 265 193 209 220 209 198 215 234 248 244 214 210 195 203 220 216 213 211 200 192 192 206 217 215 215 214 213 217 221 229 233 218 216 228 239 248 246 228 216 208 199 222 226 207 198 226 236 222 201 179 195 205
313 292 275 297 192 201 242 269 257 259 262 264 264 242 226 228 235 221 213 235 239 221 236 259 257 257 244 227 226 227 216 217 225 230 221 225 237 229 211 201 193 201 216 224 225 227 275 233 213 212 219 222 226 218 196 186 195 200 206 215 218 214 212 215 218 222 222 221 225 223 226 243 248 243 233 216 212 231 232 211 191 209 232 230 212 198 199 209
285 281 339 339 267 226 238 224 226 239 237 239 239 224 226 232 243 218 193 217 240 224 239 252 238 241 242 228 229 235 213 213 224 229 232 231 233 247 222 175 201 216 221 221 208 161 254 256 239 230 226 225 229 225 198 175 190 201 203 211 215 212 212 215 220 220 214 222 231 217 215 231 240 243 242 231 218 225 233 223 196 192 210 214 201 192 204 224
316 303 16 1 274 269 277 289 300 290 273 256 224 219 252 251 247 241 225 226 274 186 217 251 233 232 238 236 240 243 203 202 225 226 229 236 238 249 243 206 216 221 218 216 178 163 222 261 256 251 244 237 234 232 213 187 188 200 206 212 212 210 213 217 223 224 221 227 234 221 220 228 234 243 248 244 233 231 235 226 188 190 207 199 185 194 211 230
352 321 348 355 294 287 296 300 302 294 276 267 250 221 242 253 251 249 243 242 257 201 202 241 241 230 238 241 241 244 221 209 228 231 228 232 232 238 246 235 221 201 202 206 173 172 226 251 249 258 262 253 244 239 231 214 202 204 209 213 212 210 212 216 223 227 227 233 239 239 240 238 235 244 252 251 245 242 243 223 179 192 202 186 194 215 227 241
360 303 331 338 303 289 291 288 286 284 270 261 255 228 232 248 253 253 238 219 245 227 193 233 246 237 240 242 236 242 237 225 233 238 230 230 232 220 230 247 237 183 194 214 217 190 203 235 242 244 259 257 249 243 237 227 217 216 215 213 211 211 214 216 221 227 232 238 240 244 250 248 241 246 254 257 253 242 240 232 207 193 186 182 199 215 224 236
320 281 302 305 295 293 291 290 287 287 276 256 253 241 235 244 248 255 248 217 231 237 204 226 245 243 236 234 228 236 239 233 240 249 243 237 239 214 210 234 226 192 197 210 217 197 196 230 247 240 248 252 240 234 234 230 227 228 224 217 213 212 212 212 214 217 221 227 232 238 245 246 244 243 247 253 253 244 238 236 225 207 196 194 205 216 222 226
329 293 291 277 283 288 288 297 291 278 272 264 269 275 273 272 268 267 264 220 222 236 235 241 253 253 241 239 234 239 247 243 247 254 252 246 246 236 234 239 228 222 221 207 200 203 204 231 253 241 251 262 246 230 225 225 229 229 218 211 214 214 210 210 211 211 212 216 222 229 233 236 241 243 244 250 251 246 239 235 229 221 213 206 211 225 232 227